Temp
73 74 73 72 72 73 72 74 74 78 79 84 83 85 82 80 77 76 72 81 80 81 82 82 82 82 82 82 82 82 82 82 82 82 82 82 81 81 80 80 80 81 80
77 78 73 75 72 72 73 76 77 78 79 81 82 83 84 82 80 77 74 75 81 81 82 82 82 82 83 83 83 83 82 82 82 82 81 81 80 80 80 80 81 81 80
81 76 73 76 74 74 77 79 80 80 79 82 82 82 83 84 82 79 77 74 77 81 82 82 82 82 82 83 83 83 82 82 82 81 81 81 81 81 80 80 80 80 80
80 76 76 74 77 78 80 78 80 80 78 77 75 79 80 81 84 81 80 79 77 81 80 82 82 82 82 83 83 83 82 82 81 81 81 81 81 80 80 80 80 80 80
81 77 76 75 75 76 73 73 77 77 77 77 80 78 79 80 82 87 82 81 79 80 78 80 81 81 83 85 84 84 83 82 81 81 81 81 80 80 80 79 79 79 79
82 79 75 71 71 72 74 75 78 77 78 78 84 84 79 79 80 79 83 86 82 82 81 80 78 80 81 83 83 83 84 83 82 81 81 80 80 80 79 79 79 78 78
82 77 72 75 71 71 71 75 75 77 77 77 76 76 77 80 80 80 77 82 83 85 84 81 79 79 81 81 82 83 84 83 82 82 81 80 80 79 78 78 78 78 78
80 76 74 72 69 71 73 76 76 75 75 72 70 71 71 72 79 82 79 84 80 83 82 86 85 84 81 79 79 82 82 82 82 83 82 81 80 79 79 78 77 78 78
81 77 75 72 71 71 70 73 76 75 73 73 73 71 67 69 71 78 80 81 81 78 82 84 86 86 85 82 81 81 81 79 82 83 82 81 80 79 79 78 78 77 77
81 81 76 73 72 68 71 72 77 76 74 70 73 75 69 72 68 71 77 72 75 77 74 73 80 87 82 81 82 79 80 79 80 82 81 81 80 80 80 79 78 78 77
80 82 78 75 72 71 74 73 78 74 70 68 69 70 71 69 69 65 65 69 67 75 72 72 73 74 79 79 78 79 80 80 80 80 79 80 80 81 81 81 80 79 78
77 79 80 76 75 75 73 75 76 77 72 67 68 71 68 68 67 67 66 65 64 69 70 70 69 73 77 78 85 81 82 79 78 79 77 77 78 80 81 82 81 80 79
74 76 76 75 75 76 77 77 77 77 75 73 74 72 69 67 68 69 66 64 64 69 67 68 69 76 77 75 76 80 82 78 77 77 76 76 76 77 78 79 79 78 78
75 77 77 77 78 78 79 77 77 76 77 76 76 75 75 74 68 68 66 64 63 66 65 67 71 73 73 79 81 84 82 79 80 77 76 75 75 76 76 76 76 75 75
77 75 75 77 79 78 79 78 76 76 77 77 76 76 75 76 76 74 70 76 74 66 68 70 70 80 79 81 82 82 83 81 77 75 75 75 74 75 75 74 73 73 73
73 73 74 74 77 79 79 77 75 76 76 77 77 77 76 76 77 77 76 75 75 76 69 73 72 76 80 83 84 83 84 79 78 77 78 77 75 76 75 73 73 72 72
72 72 74 74 77 78 78 77 76 77 76 75 76 76 77 77 75 75 75 74 74 76 70 73 75 77 79 80 84 83 84 82 82 80 78 75 74 74 74 73 73 72 70
71 75 75 76 77 77 77 76 77 77 76 75 76 76 76 81 76 75 74 74 74 74 72 70 73 75 76 79 79 81 84 88 82 81 75 73 75 73 72 72 72 71 70
75 76 76 76 77 77 77 76 76 76 77 76 75 76 79 79 77 73 74 71 73 73 72 71 71 73 75 78 76 77 78 79 86 81 79 77 76 75 74 72 71 71 68
76 76 76 76 76 74 73 74 75 76 75 75 75 77 75 76 77 74 73 73 73 72 71 70 70 72 71 75 74 73 75 78 78 84 82 78 75 76 76 71 70 69 68
75 76 75 73 70 67 66 68 73 74 72 71 71 74 71 72 71 70 73 71 72 71 71 70 69 69 70 71 71 72 71 73 77 75 79 80 82 82 79 75 77 72 70
73 73 70 68 65 64 64 64 67 71 72 71 70 71 69 68 68 69 70 70 69 71 70 69 69 69 69 70 71 71 70 70 69 75 75 76 79 78 75 77 74 70 68
71 69 66 63 58 58 60 61 66 70 71 68 70 70 67 66 64 65 68 71 70 69 68 69 69 69 69 70 70 68 69 69 69 72 71 70 75 78 81 80 71 70 69
68 65 64 60 59 60 59 60 65 70 65 66 66 64 61 60 61 62 68 69 69 70 66 70 67 68 69 70 68 69 70 70 71 71 68 66 73 75 78 77 74 71 69
62 62 62 62 60 60 58 60 67 67 64 61 63 64 63 61 60 61 65 64 64 65 69 67 67 66 66 66 67 70 66 64 64 67 70 67 68 70 71 72 80 71 68
60 59 60 61 59 60 57 58 62 68 62 62 62 61 61 59 57 57 61 61 60 61 62 67 72 72 70 70 68 66 65 63 62 61 68 64 64 66 63 70 73 75 76
MSLP
1020.22 1020.46 1020.52 1020.59 1020.18 1019.89 1020.02 1019.72 1019.61 1019.20 1019.26 1018.79 1018.73 1018.53 1019.03 1019.61 1019.81 1019.91 1020.06 1020.09 1020.23 1020.28 1020.25 1020.14 1020.09 1020.13 1020.03 1019.90 1019.81 1019.72 1019.64 1019.49 1019.27 1019.13 1018.90 1018.78 1018.65 1018.32 1018.16 1017.96 1017.59 1017.55 1017.36
1019.88 1020.13 1020.49 1020.18 1019.96 1019.70 1020.02 1019.55 1019.39 1019.33 1019.09 1018.78 1018.86 1018.66 1018.83 1019.34 1019.66 1019.87 1019.92 1020.01 1020.11 1020.24 1020.19 1020.05 1019.99 1019.89 1019.80 1019.65 1019.53 1019.46 1019.36 1019.25 1019.02 1018.81 1018.54 1018.37 1018.18 1017.95 1017.71 1017.31 1017.21 1016.98 1016.84
1019.69 1020.16 1021.08 1020.17 1020.16 1019.95 1019.77 1019.43 1019.46 1019.32 1019.27 1018.99 1019.06 1019.01 1018.89 1019.03 1019.56 1019.77 1019.81 1019.96 1020.03 1020.07 1020.06 1019.97 1019.87 1019.71 1019.48 1019.32 1019.19 1019.12 1019.07 1018.97 1018.83 1018.64 1018.36 1018.03 1017.72 1017.52 1017.35 1017.05 1016.78 1016.48 1016.30
1019.87 1020.29 1019.78 1019.81 1020.17 1019.77 1019.22 1019.17 1019.28 1019.29 1019.41 1019.33 1019.33 1019.31 1019.19 1019.09 1019.07 1019.66 1019.81 1019.87 1020.00 1019.88 1019.89 1019.86 1019.75 1019.57 1019.31 1018.99 1018.81 1018.77 1018.73 1018.71 1018.69 1018.50 1018.22 1017.82 1017.51 1017.22 1016.97 1016.77 1016.49 1016.16 1015.81
1019.65 1019.80 1019.67 1020.07 1019.55 1019.74 1019.71 1019.96 1019.60 1019.39 1019.58 1019.75 1019.67 1019.61 1019.56 1019.46 1019.24 1019.23 1019.55 1019.71 1019.79 1019.63 1019.68 1019.61 1019.57 1019.39 1019.17 1018.89 1018.71 1018.70 1018.54 1018.37 1018.28 1018.09 1017.97 1017.71 1017.33 1017.04 1016.73 1016.49 1016.12 1015.85 1015.58
1019.51 1019.41 1020.21 1019.99 1019.51 1019.93 1019.94 1019.77 1019.82 1019.32 1019.61 1019.71 1019.55 1019.54 1019.45 1019.57 1019.32 1019.47 1019.15 1019.16 1019.38 1019.26 1019.16 1019.17 1019.23 1019.06 1018.96 1018.82 1018.69 1018.64 1018.47 1018.16 1017.94 1017.73 1017.62 1017.39 1017.15 1016.94 1016.60 1016.23 1015.96 1015.67 1015.38
1019.35 1019.70 1019.91 1019.72 1020.05 1020.52 1020.42 1020.20 1019.88 1019.79 1019.88 1019.73 1019.94 1020.15 1019.79 1019.49 1019.37 1019.49 1019.39 1019.24 1019.18 1018.98 1018.94 1018.93 1018.73 1018.83 1018.69 1018.59 1018.65 1018.67 1018.53 1018.08 1017.72 1017.49 1017.38 1017.17 1016.88 1016.81 1016.58 1016.16 1015.83 1015.58 1015.20
1019.36 1019.83 1019.73 1020.07 1020.35 1020.40 1020.52 1020.35 1020.06 1020.32 1020.26 1020.47 1020.71 1021.01 1020.87 1020.30 1019.84 1019.56 1019.87 1019.71 1019.57 1019.16 1019.11 1018.80 1018.45 1018.43 1018.32 1018.44 1018.66 1018.55 1018.49 1018.16 1017.64 1017.39 1017.24 1017.05 1016.84 1016.57 1016.50 1016.15 1015.74 1015.49 1015.13
1019.35 1020.08 1019.99 1020.04 1020.44 1020.81 1020.97 1020.39 1020.41 1020.63 1020.89 1020.87 1020.75 1021.11 1021.80 1021.46 1020.71 1019.91 1019.65 1019.54 1019.70 1019.69 1018.94 1018.77 1018.41 1018.29 1018.19 1018.18 1018.50 1018.60 1018.35 1018.03 1017.63 1017.35 1017.13 1016.95 1016.72 1016.37 1016.31 1016.02 1015.59 1015.31 1015.10
1019.37 1019.55 1020.57 1020.77 1020.83 1020.97 1020.88 1020.66 1020.36 1020.51 1020.91 1021.33 1021.45 1021.24 1021.71 1022.08 1021.96 1021.35 1020.49 1021.19 1021.67 1021.32 1020.94 1020.34 1019.35 1018.29 1018.69 1018.63 1018.77 1018.66 1018.37 1017.91 1017.60 1017.37 1017.07 1016.80 1016.59 1016.26 1016.05 1015.81 1015.42 1015.10 1014.91
1019.34 1019.33 1019.91 1020.33 1020.53 1020.56 1020.51 1020.73 1020.55 1020.74 1021.31 1022.06 1021.77 1021.67 1021.87 1022.72 1022.27 1022.29 1022.47 1022.05 1021.85 1021.73 1021.28 1021.22 1019.81 1019.17 1019.29 1019.71 1018.90 1018.66 1018.48 1017.70 1017.63 1017.25 1017.01 1016.71 1016.50 1016.21 1015.82 1015.57 1015.34 1015.04 1014.65
1019.49 1019.43 1019.60 1019.95 1020.36 1020.57 1020.88 1020.90 1020.72 1020.69 1021.00 1021.89 1021.96 1021.88 1022.15 1022.37 1022.53 1022.35 1022.56 1022.07 1023.26 1022.19 1021.57 1020.58 1020.20 1019.53 1018.83 1019.47 1018.97 1018.07 1018.04 1017.53 1017.53 1017.10 1016.86 1016.55 1016.31 1016.07 1015.75 1015.52 1015.34 1015.04 1014.71
1019.74 1019.66 1019.84 1020.20 1020.31 1020.41 1020.59 1020.62 1020.95 1021.07 1021.20 1021.52 1021.73 1021.65 1022.05 1022.49 1022.73 1022.58 1022.72 1022.94 1023.47 1022.49 1022.01 1020.29 1019.52 1018.99 1019.18 1019.29 1018.84 1017.93 1017.61 1017.47 1017.37 1016.90 1016.61 1016.28 1016.07 1015.79 1015.65 1015.53 1015.33 1015.05 1014.84
1019.32 1019.26 1019.46 1019.82 1019.98 1020.20 1020.43 1020.66 1020.64 1021.06 1021.15 1021.41 1021.50 1021.91 1021.75 1021.55 1022.45 1022.49 1023.16 1023.53 1023.21 1022.63 1022.51 1020.97 1019.92 1019.07 1019.48 1019.23 1018.39 1017.61 1017.59 1017.34 1017.09 1016.69 1016.35 1016.00 1015.72 1015.50 1015.41 1015.38 1015.35 1015.01 1014.92
1018.89 1019.17 1019.44 1019.58 1019.72 1019.85 1020.05 1020.44 1020.91 1020.99 1021.05 1021.11 1021.13 1021.27 1021.45 1021.57 1021.69 1021.97 1022.07 1022.08 1021.52 1022.21 1022.33 1021.35 1020.73 1019.23 1019.02 1018.69 1018.07 1017.63 1017.44 1017.05 1016.79 1016.33 1015.85 1015.53 1015.35 1015.26 1015.18 1015.16 1015.19 1015.01 1014.84
1019.19 1019.49 1019.51 1019.67 1019.59 1019.62 1019.82 1020.18 1020.77 1020.88 1021.03 1021.12 1021.15 1021.20 1021.10 1021.20 1021.26 1021.22 1021.19 1021.15 1021.06 1020.96 1021.39 1020.79 1020.48 1019.67 1018.85 1018.22 1017.50 1017.48 1017.24 1016.89 1016.51 1016.09 1015.61 1015.31 1015.36 1015.18 1014.84 1014.99 1014.89 1014.87 1014.61
1019.51 1019.33 1019.23 1019.47 1019.61 1019.65 1019.64 1020.11 1020.49 1020.71 1020.93 1021.11 1021.18 1021.31 1021.35 1021.24 1021.23 1021.25 1021.09 1020.83 1020.83 1020.61 1021.13 1020.65 1019.84 1019.04 1018.63 1018.14 1017.66 1017.29 1017.15 1016.96 1016.60 1016.07 1015.86 1015.56 1015.48 1015.27 1014.93 1014.71 1014.77 1014.45 1014.37
1019.11 1019.03 1019.15 1019.49 1019.45 1019.51 1019.69 1020.01 1020.42 1020.73 1020.99 1021.28 1021.29 1021.13 1021.11 1020.93 1020.97 1021.04 1020.85 1020.90 1020.98 1021.02 1021.15 1020.75 1019.89 1019.07 1018.69 1018.31 1018.11 1017.84 1017.54 1017.18 1016.75 1016.27 1015.94 1015.65 1015.35 1015.03 1014.65 1014.31 1014.06 1013.85 1014.17
1019.09 1019.06 1019.18 1019.33 1019.46 1019.47 1019.67 1020.00 1020.26 1020.51 1020.76 1020.90 1021.17 1021.13 1020.89 1020.77 1020.85 1020.91 1020.98 1021.27 1021.16 1021.05 1020.85 1020.69 1020.27 1019.53 1019.17 1018.79 1018.66 1018.29 1018.00 1017.35 1016.76 1016.37 1016.00 1015.69 1015.45 1014.90 1014.33 1013.80 1013.47 1013.73 1014.14
1018.76 1019.03 1019.31 1019.37 1019.47 1019.76 1019.97 1020.07 1020.15 1020.35 1020.68 1020.98 1020.97 1020.86 1020.94 1020.71 1020.92 1020.85 1021.01 1021.15 1021.05 1020.91 1020.86 1020.84 1020.58 1020.20 1019.89 1019.41 1019.16 1018.93 1018.21 1017.89 1017.40 1016.60 1016.23 1016.07 1015.67 1015.13 1014.59 1014.33 1014.07 1014.12 1014.11
1018.47 1018.77 1019.13 1019.66 1020.06 1020.45 1020.91 1020.75 1020.23 1020.27 1020.75 1020.91 1021.24 1021.61 1021.49 1021.13 1020.79 1020.89 1020.99 1021.05 1020.96 1020.95 1020.91 1020.92 1020.82 1020.56 1020.27 1019.83 1019.59 1019.46 1019.19 1018.52 1017.71 1017.25 1016.91 1016.27 1015.72 1015.56 1015.42 1014.91 1014.43 1014.40 1014.43
1019.07 1019.17 1019.96 1020.51 1020.97 1021.18 1021.17 1020.86 1020.49 1020.59 1020.83 1020.59 1020.71 1021.73 1022.06 1021.53 1021.47 1021.34 1021.14 1020.70 1020.91 1021.07 1021.10 1021.20 1021.15 1021.01 1020.60 1020.27 1019.98 1019.76 1019.44 1018.95 1018.47 1017.51 1017.47 1016.67 1016.17 1016.28 1015.88 1015.44 1015.03 1014.80 1014.71
1019.57 1019.78 1020.67 1021.36 1021.57 1021.53 1021.17 1020.71 1020.35 1020.63 1020.87 1020.98 1021.62 1022.37 1022.36 1022.15 1022.12 1021.80 1021.17 1020.85 1020.93 1020.88 1021.16 1021.32 1021.26 1020.98 1020.58 1020.28 1020.11 1019.82 1019.58 1019.39 1019.10 1018.52 1017.99 1017.51 1016.96 1016.61 1015.91 1015.58 1015.42 1015.06 1014.68
1019.68 1020.25 1020.90 1021.37 1021.53 1021.77 1021.28 1020.53 1020.32 1020.59 1021.32 1022.07 1022.39 1022.57 1022.61 1022.53 1022.51 1022.11 1021.86 1021.67 1021.61 1021.42 1021.45 1021.23 1021.37 1020.88 1020.46 1020.03 1019.99 1019.84 1019.61 1019.46 1019.09 1018.77 1018.65 1018.52 1017.57 1017.09 1016.14 1015.77 1015.46 1015.47 1015.36
1020.47 1021.16 1020.99 1020.92 1021.71 1021.82 1021.22 1020.38 1020.49 1021.00 1021.64 1022.27 1022.55 1022.51 1022.68 1022.85 1022.73 1022.43 1022.33 1022.39 1022.21 1021.86 1021.31 1021.03 1020.68 1020.53 1020.30 1020.27 1020.05 1019.78 1019.91 1019.81 1019.80 1019.43 1019.11 1019.12 1018.38 1017.68 1016.79 1016.34 1015.69 1015.59 1015.48
1020.67 1021.13 1021.63 1021.99 1022.19 1021.89 1021.75 1021.17 1020.91 1021.40 1022.15 1022.63 1023.01 1023.23 1023.20 1023.31 1023.24 1022.99 1022.91 1022.87 1022.80 1022.50 1021.86 1021.10 1020.64 1020.67 1020.70 1020.58 1020.46 1020.43 1020.47 1020.63 1020.66 1020.36 1019.87 1019.67 1019.08 1018.77 1017.89 1016.81 1016.53 1016.29 1016.11
Wind_Speed
5 4 4 2 3 3 4 4 5 6 6 3 3 7 7 6 5 4 3 12 9 8 7 6 5 5 5 6 7 8 8 9 9 10 11 11 11 12 12 12 12 12 12
2 5 3 5 4 3 3 4 3 3 2 2 4 4 6 6 6 5 4 5 10 9 8 8 7 7 8 8 9 9 9 9 9 10 10 10 10 10 12 12 11 11 10
3 6 4 7 5 4 7 3 3 4 3 1 2 4 4 5 7 6 4 4 5 10 10 10 9 10 11 11 10 9 9 9 8 8 9 10 10 9 9 11 12 12 10
4 4 1 3 1 3 4 3 4 3 2 4 2 3 3 3 4 6 5 4 4 5 8 11 11 12 13 12 11 9 9 8 7 8 9 9 9 10 10 10 11 12 12
1 1 3 0 4 4 5 4 2 1 2 1 3 3 4 4 3 2 7 7 6 5 4 9 13 13 14 14 11 9 9 8 8 8 7 8 9 9 9 9 10 10 10
2 2 5 4 5 5 4 4 3 4 2 1 2 3 4 3 4 4 4 4 6 7 7 7 6 7 14 12 10 9 8 8 8 8 9 8 8 8 9 11 11 11 10
3 5 3 4 5 5 5 5 3 4 4 2 3 3 2 4 6 5 3 5 5 6 7 5 5 4 5 13 9 7 8 7 5 6 8 9 10 9 9 11 12 12 10
4 7 4 5 4 4 6 4 4 4 2 4 3 2 3 6 3 4 3 7 5 3 5 7 6 5 5 3 5 8 5 4 3 5 8 10 11 10 8 9 11 11 11
3 9 5 2 1 0 3 5 4 3 2 2 4 4 2 2 2 3 1 2 3 1 5 5 5 6 4 3 6 3 7 1 2 5 7 9 10 10 9 8 10 11 10
4 5 9 5 3 2 2 4 1 4 4 5 2 3 4 4 4 5 4 6 11 14 12 11 9 5 2 4 4 4 5 0 3 5 7 8 10 11 9 8 9 11 11
4 4 7 6 2 1 3 3 3 6 4 3 1 3 2 3 6 3 3 5 5 8 4 3 6 6 4 3 1 4 8 5 6 5 7 9 10 10 10 9 9 11 11
3 4 5 5 4 1 3 4 2 4 3 5 1 2 1 4 3 3 1 1 3 7 3 5 3 3 3 2 7 6 8 9 9 7 9 8 9 10 12 11 11 12 12
2 5 6 5 4 3 4 2 2 2 0 1 2 2 1 4 1 1 3 3 2 5 4 6 3 3 5 4 8 9 4 9 10 9 10 9 9 9 11 10 10 10 10
4 6 6 6 6 5 3 4 1 0 2 2 2 3 2 1 6 4 4 4 1 2 2 8 3 3 3 8 9 6 5 9 11 11 13 14 11 10 10 8 6 7 7
3 6 3 6 6 6 6 3 1 3 2 2 3 4 2 2 3 5 4 6 4 3 4 3 2 5 4 5 6 3 6 9 12 11 13 11 8 10 9 9 5 4 5
4 4 3 1 6 4 5 4 1 2 2 3 2 5 4 2 3 3 3 2 1 2 1 3 5 6 6 4 5 5 7 10 12 14 11 11 6 11 12 7 8 3 2
6 7 4 3 6 5 4 3 4 3 2 3 3 2 5 3 2 1 2 2 3 2 2 4 4 3 6 7 8 7 4 7 5 11 12 13 10 12 16 9 8 7 2
5 4 4 5 5 5 4 4 4 1 3 4 5 1 4 3 3 1 2 4 3 1 1 3 3 4 3 5 5 5 6 6 5 10 10 9 11 13 15 13 9 9 3
6 6 6 4 4 4 3 4 5 3 2 4 4 4 5 1 2 1 2 3 2 3 2 2 4 2 2 3 4 4 5 6 7 13 12 11 14 14 16 14 7 7 3
7 5 5 5 5 2 5 3 1 1 3 4 5 6 5 2 3 1 2 2 2 4 3 3 3 4 2 4 2 4 8 7 8 9 9 9 10 14 16 17 8 7 4
7 6 5 3 8 7 5 4 2 6 7 5 6 6 7 9 8 5 2 3 3 2 2 3 3 2 2 4 5 4 3 6 8 3 9 8 7 6 8 7 7 6 6
6 3 9 9 7 5 5 5 3 5 4 5 8 5 5 11 9 11 10 5 2 2 2 1 2 3 4 2 3 3 4 5 5 4 6 7 5 5 4 4 12 10 9
7 9 10 9 7 4 10 5 1 4 5 4 2 6 5 6 8 6 7 7 9 11 3 2 3 3 4 3 3 4 4 3 3 4 4 4 4 8 7 5 9 9 12
9 9 7 7 7 6 10 7 2 8 10 8 8 7 6 6 7 6 6 7 7 7 7 4 4 6 5 5 2 1 2 4 3 3 5 4 4 8 7 5 10 10 16
10 5 7 11 8 8 14 14 9 8 9 8 7 7 7 6 9 11 7 7 7 6 8 8 9 10 9 8 5 4 5 4 4 3 7 5 4 5 4 4 8 16 15
8 7 8 8 8 10 16 14 10 6 9 6 6 6 11 7 8 10 6 5 6 5 8 11 13 10 9 9 10 7 4 5 4 4 7 6 4 5 5 4 6 8 10
Wind_Direction
251 129 146 134 246 248 264 237 206 227 243 185 158 107 112 135 146 146 163 170 180 187 189 195 213 230 249 263 271 278 283 288 288 291 293 290 285 282 280 277 273 271 271
189 109 111 190 245 234 259 281 285 283 282 83 78 107 114 146 146 157 168 179 190 196 204 212 225 237 246 256 264 270 276 282 290 298 297 295 289 284 289 291 289 281 274
38 92 141 230 248 255 257 222 288 275 251 277 128 142 134 132 156 165 180 181 192 206 211 221 231 240 244 248 256 264 272 288 300 304 302 302 305 304 297 293 293 288 280
82 76 330 254 170 85 322 314 283 320 222 162 212 197 165 162 168 166 173 180 190 201 224 230 237 245 250 252 255 263 278 294 303 308 312 313 313 315 315 313 303 294 290
308 73 175 289 46 54 354 357 347 207 57 310 234 190 185 168 223 155 189 190 196 202 199 229 232 240 250 260 269 279 291 309 322 327 334 332 333 341 343 340 323 319 304
136 319 80 54 42 40 351 350 24 354 46 142 323 177 195 197 203 218 220 182 203 201 209 212 210 236 244 251 264 284 300 312 331 341 347 347 342 350 351 349 344 338 331
140 89 105 81 54 43 328 323 299 17 358 0 43 5 308 199 192 218 196 252 238 195 215 220 218 216 239 239 236 261 287 306 346 359 354 349 347 2 8 353 347 348 342
85 87 92 73 51 11 328 267 31 349 5 346 100 53 360 337 330 264 155 240 237 259 235 239 232 226 214 238 188 218 263 269 21 18 2 351 350 353 9 358 346 347 347
128 117 129 131 179 52 336 335 334 75 10 39 75 129 26 236 323 322 277 174 256 260 248 264 255 249 267 144 131 189 243 173 28 5 0 345 341 340 358 358 347 344 351
158 151 139 172 180 176 351 314 338 50 78 42 348 85 80 56 51 347 7 29 28 13 17 348 342 257 24 116 131 238 256 250 313 344 345 332 334 333 340 349 350 344 351
218 175 141 130 125 277 302 329 346 76 90 113 139 358 92 99 64 105 360 334 3 341 340 316 350 30 29 350 155 304 262 270 282 320 320 325 326 331 334 337 353 349 351
214 143 143 143 180 245 340 293 55 65 74 99 268 117 137 94 211 130 135 311 46 287 291 292 242 271 39 354 314 311 287 256 267 307 304 311 312 323 328 338 359 356 358
245 183 157 165 170 191 253 297 81 17 296 145 147 85 122 131 73 325 38 2 142 276 317 255 313 65 356 293 272 273 301 247 267 282 283 295 292 307 313 323 353 1 1
220 207 162 163 173 180 228 274 36 12 343 160 98 192 276 198 151 152 184 177 251 293 304 267 303 26 235 253 249 348 323 293 282 279 282 288 281 289 303 312 346 357 4
143 119 87 178 192 190 197 194 250 293 305 308 2 358 140 160 152 152 202 233 184 176 244 287 295 301 268 269 280 311 305 291 296 290 288 281 271 282 290 303 321 2 3
134 173 217 287 197 192 166 154 155 339 338 311 359 357 7 24 6 3 7 346 230 149 65 192 232 244 247 292 306 289 286 295 299 310 296 294 287 285 288 285 297 337 8
182 197 187 274 186 158 163 164 182 208 187 247 276 284 275 266 287 8 23 7 358 51 98 291 231 290 343 340 325 312 299 300 323 309 302 317 332 299 299 292 287 286 222
217 192 218 208 176 185 185 170 194 254 204 254 236 73 296 322 356 63 31 15 18 324 68 308 306 327 359 10 326 10 359 9 344 6 354 344 329 313 303 306 237 251 228
196 207 206 200 182 193 185 206 205 217 230 257 243 234 253 206 191 117 7 18 1 354 2 19 304 324 323 356 337 350 350 348 354 352 350 357 348 333 331 329 270 248 242
181 202 209 205 203 77 49 46 60 272 351 319 305 269 266 58 89 72 66 3 10 358 6 7 338 331 356 330 325 349 355 356 345 336 345 348 332 334 341 354 1 284 282
182 197 207 48 84 65 38 323 129 127 65 36 47 16 37 35 61 69 91 15 16 14 343 344 335 322 324 348 8 334 337 328 329 345 345 336 337 344 359 356 324 298 305
282 89 74 88 80 67 350 360 336 80 105 82 352 45 21 33 18 8 359 356 272 278 298 344 330 335 317 317 331 340 336 350 351 342 337 322 5 359 351 345 335 10 331
77 85 89 90 77 15 358 339 254 174 175 133 151 97 61 33 21 0 345 27 19 27 333 42 341 314 307 350 343 339 357 341 294 326 342 318 346 352 341 347 359 341 318
99 106 92 87 73 28 356 347 138 106 91 84 105 104 91 52 20 15 19 27 25 32 17 11 333 294 289 307 317 302 289 310 308 15 10 355 328 342 326 338 338 4 3
90 102 103 73 63 32 13 33 96 93 94 81 82 85 83 58 27 27 50 32 7 351 342 338 317 339 61 64 64 42 17 27 353 324 15 345 308 312 310 358 1 12 10
98 82 73 91 78 57 32 41 57 93 94 91 66 56 50 58 38 40 48 30 12 338 340 349 30 43 30 25 25 41 15 33 1 359 348 344 333 348 331 343 359 353 359